Погода в Городце

Россия / Брянская область     53°07′37″N   34°03′13″E
темп.,
°C
ветер,
м/с
пор.,
м/с
влажн.,
%
обл.,
%
осадки,
мм/ч
давл.,
гПа
погр.,
м
20 апреля, вт
вт2000:00+6всв5883100 0.0 1018779
03:00+5св4894100 0.3 1016569
06:00+5св5994100 0.7 1015461
09:00+6св5890100 0.8 1014506
12:00+7всв5890100 0.3 1013748
15:00+6ссв4896100 8.9 1011442
18:00+8всв798369 0.8 1010761
21:00+4всв5992100 0.8 1011683
21 апреля, ср
ср2100:00+3ссв4797100 0.0 1009465
03:00+3с4697100 0.1 1008421
06:00+3ссз3697100 0.1 1007486
09:00+3сз3592100 0.1 1008578
12:00+6зсз3476100 0.1 1009851
15:00+7з3470100 0.1 10101004
18:00+6юз3577100 0.0 1011346
21:00+5ююз4791100 0.1 1013215
22 апреля, чт
чт2200:00+4ююз4898100 0.1 1014218
03:00+3ю379749 0.3 1014155
06:00+2ю389717 0.0 1015183
09:00+8ю57815 0.0 1015436
12:00+13ю676536 0.0 10151215
15:00+13ююз686639 1.4 10141460
18:00+13ююз6107260 1.6 1014848
21:00+9ю498877 2.0 1015168
23 апреля, пт
пт2300:00+8ю5129065 0.0 1014255
03:00+7ю4129275 0.1 1014282
06:00+7ю5119310 0.1 1014336
09:00+10ю468399 0.3 1014628
12:00+10юз4988100 0.8 1014884
15:00+10сз548396 1.9 1013482
18:00+4сз6995100 1.0 1014541
21:00+4сз4795100 1.2 1014520
24 апреля, сб
сб2400:00+4зсз5892100 0.3 1013619
03:00+4юз259497 1.4 1013214
06:00+2зюз379219 0.1 1013218
09:00+6з467149 0.2 1012610
12:00+8зюз675899 1.0 10121611
15:00+8з7953100 2.0 10121989
18:00+7з68615 0.1 10121597
21:00+2зюз39795 0.2 1014251